Voltar ao catálogo

COSMOS 2425

GLONASS

AtivoNavegaçãoMEO
NORAD 29670·PAYLOAD·🇷🇺 Russia

Lançado Dec 25, 2006 de Baikonur Cosmodrome

Loading…

Próximas Passagens (próximas 24 horas)

TLE

AtualizadoSource: Space-Track

Época: Sep 13, 2026, 11:43 UTC

1 29670U 06062A   26256.48829913  .00000016  00000-0  00000-0 0  9990
2 29670  64.6947 191.3482 0022909 353.4785 185.8917  2.13117690153465

Acompanhe COSMOS 2425 em tempo real com AllMySat

Download on the App Store